• In Uzbekistan
  • List of Countries
  • For 7 days
  • Water Temperature
  • Satellite Maps
  • Weather Map
  • Weather Widgets
  • user-avatar
    Login

    Hourly Weather Bregenz

    Today, 23 March, Thursday

    Time Temperature Precipitation Wind Pressure Humidity
    00:00 +1°C° 0.3 mm 1 mps 640 mmHg 97%
    01:00 +1°C° 0 mm 1 mps 641 mmHg 97%
    02:00 0°C° 0.2 mm 1 mps 641 mmHg 97%
    03:00 0°C° 0.2 mm 1 mps 641 mmHg 97%
    04:00 0°C° 0.2 mm 1 mps 641 mmHg 96%
    05:00 0°C° 0.1 mm 1 mps 641 mmHg 96%
    06:00 0°C° 0.1 mm 1 mps 641 mmHg 95%
    07:00 -1°C° 0 mm 2 mps 641 mmHg 95%
    08:00 +2°C° 0 mm 2 mps 642 mmHg 93%
    09:00 +3°C° 0 mm 2 mps 642 mmHg 91%
    10:00 +5°C° 0 mm 2 mps 643 mmHg 90%
    11:00 +6°C° 0.1 mm 2 mps 643 mmHg 86%
    12:00 +7°C° 0.1 mm 2 mps 643 mmHg 82%
    13:00 +8°C° 0.1 mm 2 mps 644 mmHg 78%
    14:00 +8°C° 0.2 mm 2 mps 643 mmHg 79%
    15:00 +8°C° 0.2 mm 3 mps 643 mmHg 80%
    16:00 +8°C° 0.2 mm 3 mps 643 mmHg 81%
    17:00 +7°C° 0.1 mm 3 mps 643 mmHg 85%
    18:00 +4°C° 0.1 mm 3 mps 643 mmHg 90%
    19:00 +3°C° 0.1 mm 3 mps 643 mmHg 94%
    20:00 +2°C° 0 mm 3 mps 643 mmHg 93%
    21:00 +2°C° 0 mm 3 mps 644 mmHg 93%
    22:00 +2°C° 0 mm 3 mps 644 mmHg 92%
    23:00 +1°C° 0 mm 3 mps 644 mmHg 92%

    Tomorrow, 24 March, Friday

    Time Temperature Precipitation Wind Pressure Humidity
    00:00 +2°C° 0 mm 2 mps 645 mmHg 92%
    01:00 +2°C° 0 mm 2 mps 645 mmHg 92%
    02:00 +1°C° 0 mm 2 mps 645 mmHg 92%
    03:00 +1°C° 0 mm 2 mps 645 mmHg 92%
    04:00 +1°C° 0 mm 2 mps 645 mmHg 92%
    05:00 +1°C° 0 mm 2 mps 646 mmHg 92%
    06:00 +1°C° 0 mm 2 mps 646 mmHg 91%
    07:00 +1°C° 0 mm 2 mps 646 mmHg 91%
    08:00 +3°C° 0 mm 2 mps 647 mmHg 88%
    09:00 +5°C° 0 mm 2 mps 647 mmHg 85%
    10:00 +6°C° 0 mm 2 mps 648 mmHg 83%
    11:00 +7°C° 0 mm 2 mps 648 mmHg 81%
    12:00 +8°C° 0 mm 2 mps 648 mmHg 79%
    13:00 +9°C° 0 mm 3 mps 649 mmHg 78%
    14:00 +9°C° 0 mm 3 mps 649 mmHg 78%
    15:00 +9°C° 0 mm 3 mps 649 mmHg 79%
    16:00 +9°C° 0 mm 3 mps 649 mmHg 79%
    17:00 +8°C° 0 mm 3 mps 649 mmHg 84%
    18:00 +7°C° 0 mm 3 mps 648 mmHg 89%
    19:00 +4°C° 0 mm 3 mps 648 mmHg 93%
    20:00 +4°C° 0 mm 2 mps 648 mmHg 93%
    21:00 +4°C° 0 mm 2 mps 649 mmHg 93%
    22:00 +3°C° 0 mm 2 mps 649 mmHg 93%
    23:00 +3°C° 0 mm 2 mps 649 mmHg 92%

    Day after tomorrow, 25 March, Saturday

    Time Temperature Precipitation Wind Pressure Humidity
    00:00 +3°C° 0 mm 2 mps 649 mmHg 92%
    01:00 +2°C° 0 mm 2 mps 648 mmHg 92%
    02:00 +2°C° 0 mm 2 mps 648 mmHg 92%
    03:00 +2°C° 0 mm 2 mps 648 mmHg 91%
    04:00 +1°C° 0 mm 3 mps 648 mmHg 91%
    05:00 +1°C° 0 mm 3 mps 648 mmHg 91%
    06:00 +1°C° 0 mm 3 mps 648 mmHg 90%
    07:00 +1°C° 0 mm 3 mps 647 mmHg 89%
    08:00 +3°C° 0 mm 3 mps 648 mmHg 84%
    09:00 +5°C° 0 mm 3 mps 648 mmHg 79%
    10:00 +7°C° 0 mm 4 mps 648 mmHg 75%
    11:00 +8°C° 0 mm 4 mps 648 mmHg 72%
    12:00 +8°C° 0 mm 4 mps 648 mmHg 69%
    13:00 +10°C° 0 mm 4 mps 648 mmHg 67%
    14:00 +10°C° 0 mm 4 mps 647 mmHg 68%
    15:00 +10°C° 0 mm 4 mps 647 mmHg 69%
    16:00 +10°C° 0 mm 4 mps 646 mmHg 70%
    17:00 +7°C° 0 mm 4 mps 646 mmHg 77%
    18:00 +5°C° 0 mm 3 mps 646 mmHg 83%
    19:00 +3°C° 0 mm 3 mps 645 mmHg 89%
    20:00 +2°C° 0 mm 3 mps 645 mmHg 90%
    21:00 +3°C° 0 mm 2 mps 645 mmHg 90%
    22:00 +2°C° 0 mm 2 mps 645 mmHg 91%
    23:00 +1°C° 0 mm 2 mps 645 mmHg 91%

    26 March, Sunday

    Time Temperature Precipitation Wind Pressure Humidity
    00:00 +1°C° 0 mm 2 mps 645 mmHg 91%
    01:00 +1°C° 0 mm 2 mps 645 mmHg 92%
    02:00 +1°C° 0 mm 1 mps 644 mmHg 92%
    03:00 +1°C° 0 mm 1 mps 644 mmHg 92%
    04:00 +1°C° 0 mm 1 mps 644 mmHg 93%
    05:00 +1°C° 0 mm 1 mps 644 mmHg 93%
    06:00 +1°C° 0 mm 1 mps 645 mmHg 92%
    07:00 +2°C° 0 mm 1 mps 645 mmHg 92%
    08:00 +3°C° 0.1 mm 1 mps 645 mmHg 89%
    09:00 +4°C° 0.1 mm 1 mps 646 mmHg 86%
    10:00 +5°C° 0.1 mm 1 mps 646 mmHg 83%
    11:00 +6°C° 0.1 mm 1 mps 646 mmHg 82%
    12:00 +6°C° 0.1 mm 1 mps 646 mmHg 80%
    13:00 +7°C° 0.1 mm 1 mps 646 mmHg 79%
    14:00 +7°C° 0.1 mm 1 mps 646 mmHg 81%
    15:00 +6°C° 0.1 mm 1 mps 646 mmHg 84%
    16:00 +6°C° 0.1 mm 1 mps 645 mmHg 86%
    17:00 +5°C° 0 mm 1 mps 645 mmHg 89%
    18:00 +4°C° 0 mm 1 mps 645 mmHg 93%
    19:00 +3°C° 0 mm 1 mps 645 mmHg 96%
    20:00 +3°C° 0 mm 1 mps 646 mmHg 96%
    21:00 +2°C° 0 mm 1 mps 646 mmHg 96%
    22:00 +2°C° 0 mm 1 mps 646 mmHg 96%
    23:00 +1°C° 0 mm 1 mps 646 mmHg 96%

    27 March, Monday

    Time Temperature Precipitation Wind Pressure Humidity
    00:00 +1°C° 0 mm 1 mps 646 mmHg 96%
    01:00 0°C° 0 mm 1 mps 646 mmHg 96%
    02:00 0°C° 0 mm 1 mps 646 mmHg 96%
    03:00 -1°C° 0 mm 1 mps 646 mmHg 96%
    04:00 -3°C° 0 mm 0 mps 645 mmHg 97%
    05:00 -1°C° 0 mm 1 mps 646 mmHg 95%
    06:00 0°C° 0 mm 1 mps 646 mmHg 94%
    07:00 +1°C° 0 mm 1 mps 647 mmHg 93%
    08:00 +3°C° 0 mm 1 mps 648 mmHg 85%
    09:00 +6°C° 0 mm 1 mps 648 mmHg 77%
    10:00 +9°C° 0 mm 1 mps 649 mmHg 68%
    11:00 +10°C° 0 mm 1 mps 649 mmHg 66%
    12:00 +10°C° 0 mm 1 mps 649 mmHg 64%
    13:00 +11°C° 0 mm 1 mps 650 mmHg 62%
    14:00 +11°C° 0 mm 1 mps 649 mmHg 65%
    15:00 +11°C° 0 mm 1 mps 649 mmHg 68%
    16:00 +10°C° 0 mm 1 mps 649 mmHg 71%
    17:00 +8°C° 0 mm 1 mps 648 mmHg 79%
    18:00 +5°C° 0 mm 1 mps 648 mmHg 87%
    19:00 +3°C° 0 mm 1 mps 647 mmHg 95%
    20:00 +2°C° 0 mm 1 mps 647 mmHg 95%
    21:00 +2°C° 0 mm 1 mps 648 mmHg 95%
    22:00 +2°C° 0 mm 1 mps 648 mmHg 95%
    23:00 +1°C° 0 mm 1 mps 648 mmHg 95%

    28 March, Tuesday

    Time Temperature Precipitation Wind Pressure Humidity
    00:00 +1°C° 0 mm 1 mps 648 mmHg 95%
    01:00 +1°C° 0 mm 1 mps 648 mmHg 94%
    02:00 +1°C° 0 mm 1 mps 648 mmHg 94%
    03:00 +1°C° 0 mm 1 mps 648 mmHg 93%
    04:00 +1°C° 0 mm 1 mps 648 mmHg 92%
    05:00 +1°C° 0 mm 1 mps 648 mmHg 91%
    06:00 +2°C° 0 mm 1 mps 648 mmHg 89%
    07:00 +2°C° 0 mm 1 mps 648 mmHg 88%
    08:00 +5°C° 0 mm 1 mps 649 mmHg 77%
    09:00 +8°C° 0 mm 1 mps 650 mmHg 66%
    10:00 +10°C° 0 mm 0 mps 651 mmHg 55%
    11:00 +11°C° 0 mm 1 mps 651 mmHg 52%
    12:00 +12°C° 0 mm 1 mps 651 mmHg 49%
    13:00 +13°C° 0 mm 1 mps 651 mmHg 47%
    14:00 +12°C° 0 mm 1 mps 651 mmHg 50%
    15:00 +12°C° 0 mm 2 mps 651 mmHg 54%
    16:00 +12°C° 0 mm 2 mps 650 mmHg 58%
    17:00 +9°C° 0.1 mm 1 mps 650 mmHg 69%
    18:00 +6°C° 0.1 mm 1 mps 649 mmHg 80%
    19:00 +4°C° 0.1 mm 1 mps 649 mmHg 91%
    20:00 +3°C° 0.1 mm 1 mps 649 mmHg 91%
    21:00 +1°C° 0.1 mm 0 mps 649 mmHg 92%
    22:00 +1°C° 0.1 mm 0 mps 649 mmHg 92%
    23:00 +1°C° 0 mm 0 mps 649 mmHg 92%
    Show more